Starlink 34929

operational
NORAD ID: 65178 Int'l Des: 2025-175 Owner: SPXS Country: US Constellation: starlink
LEOCIRCULARRETROGRADESSO

关于 Starlink 34929

正在加载描述...

实时位置

正在加载3D地球...

即将过境

高度历史

Altitude vs Time

uPlot chart will show altitude changes over time

两行轨道根数

1 65178U 25175E 26062.15317005 .00000993 00000-0 73008-4 0 9998
2 65178 97.6013 296.1644 0002353 91.0621 269.0875 15.05649497 31651
Epoch: Mar 3, 2026 • Age: 26 hours

当前状态

高度 552.4 km
速度 7.59 km/s
星下点 0.68°N, 105°E
发射日期 Aug 14, 2025
运行时间 0.5 years
类型 internet

技术详情

分类 Payload
质量 575.00 kg
干质量 530.00 kg
总质量 575.00 kg
长度 0.30 m
直径 4.10 m
跨度 29.00 m
形状 Box + pan
制造商 SPXS
平台类型 Starlink V2MO
阶段状态 In Orbit
所有者/国家 SPXS/US

大型星座

Loading constellations...